Location: Long Island Community Building
(39.9491°N, 99.5338°W)
Time: 09:55:08
(UTC+00:00)

METEOR-M - Pass Details

Date: 06 December 2019
Orbit: 817 x 819 km, 98.4° (Epoch: 17 January)

Event Time Altitude Azimuth Distance (km) Brightness Sun altitude
Rises 12:12:17 0° 11° (N) 3,355 7.3 -17.3°
Reaches altitude 10° 12:14:38 10° 9° (N) 2,419 6.5 -16.9°
Maximum altitude 12:19:59 75° 285° (WNW) 851 4.0 -15.9°
Drops below altitude 10° 12:25:17 10° 201° (SSW) 2,404 6.5 -14.9°
Sets 12:27:37 0° 200° (SSW) 3,332 7.3 -14.5°
